Regional Weather Roundup
Issued by NWS

Home | Current Version | Previous Version | Graphics & Text | Print | Product List | Glossary On
Versions: 1 2 3 4 5 6 7 8 9 10 11 12 13 14 15 16 17 18 19 20 21 22 23 24 25 26 27 28 29 30 31 32 33 34 35 36 37 38 39 40 41 42 43 44 45 46 47 48 49 50
955
ASUS44 KMEG 290000
RWRTN
TENNESSEE HOURLY STATE WEATHER ROUNDUP
NATIONAL WEATHER SERVICE MEMPHIS TN
700 PM CDT FRI APR 28 2017

TNZ002-004-019-021-049-052-054-088>092-290100-
WEST TENNESSEE

CITY           SKY/WX    TMP DP  RH WIND       PRES   REMARKS
MEMPHIS INTL   MOCLDY    82  73  74 S9        29.78S
NWS MEMPHIS      N/A     83 N/A N/A MISG        N/A
JACKSON        CLOUDY    82  73  74 S6        29.80S
DYERSBURG      CLOUDY    82  72  71 S9        29.79R
$$

TNZ008-025-027-028-033-062-065-066-290100-
NORTH MIDDLE TENNESSEE

CITY           SKY/WX    TMP DP  RH WIND       PRES   REMARKS
NASHVILLE      PTCLDY    80  67  64 S9        29.89R
CLARKSVILLE    CLOUDY    79  68  69 S8        29.85R
SMYRNA         PTCLDY    80  68  66 S7        29.90R
CROSSVILLE     MOCLDY    75  63  66 VRB7      30.01R
$$

TNZ061-075-076-078-094-096-097-290100-
SOUTH MIDDLE TENNESSEE

CITY           SKY/WX    TMP DP  RH WIND       PRES   REMARKS
TULLAHOMA      CLEAR     79  64  61 S8        29.95R
WINCHESTER     CLEAR     81  66  61 S12       29.95R
COLUMBIA       PTCLDY    81  81 100 S8        29.87S HX  91
SHELBYVILLE    MOCLDY    81  70  69 S12       29.93R
$$

TNZ017-018-042-046-047-290100-
NORTHEAST TENNESSEE

CITY           SKY/WX    TMP DP  RH WIND       PRES   REMARKS
TRI CITIES     MOCLDY    79  59  50 S7        29.99R
$$

TNZ012-013-036-069-073-074-290100-
CENTRAL EAST TENNESSEE

CITY           SKY/WX    TMP DP  RH WIND       PRES   REMARKS
KNOXVILLE      PTCLDY    80  62  54 SW10      29.97R
OAK RIDGE      MOCLDY    79  66  64 CALM      29.98R
GATLINBURG     CLEAR     79  64  61 CALM      29.97R
$$

TNZ083-085-099-290100-
SOUTHEAST TENNESSEE

CITY           SKY/WX    TMP DP  RH WIND       PRES   REMARKS
CHATTANOOGA    MOCLDY    81  65  58 S8        29.97R
$$

SKY/WX REPORTED AS FAIR MEANS FEW OR NO CLOUDS BELOW
12 THOUSAND FEET.





USA.gov is the U.S. government's official web portal to all federal, state and local government web resources and services.